San Antonio Stinson, TX

4:34 PM CDT on October 23, 2017 (GMT -0500)
Stinson Municipal

Weather History for KSSF - April, 2013

Change the Weather History Date:

Wednesday, April 10, 2013

  Actual Average Record
Temperature  
Mean Temperature 62 °F -  
Max Temperature 73 °F 76 °F 95 °F (2011)
Min Temperature 50 °F 56 °F 39 °F (2003)
Degree Days  
Heating Degree Days 4    
Growing Degree Days 12 (Base 50)    
Moisture  
Dew Point 56 °F    
Average Humidity 78    
Maximum Humidity 100    
Minimum Humidity 50    
Precipitation  
Precipitation 0.01 in - - ()
Sea Level Pressure  
Sea Level Pressure 29.74 in    
Wind  
Wind Speed 12 mph (NE)    
Max Wind Speed 20 mph    
Max Gust Speed 32 mph    
Visibility 8 miles    
Events Rain    
Averages and records for this station are not official NWS values.
T = Trace of Precipitation, MM = Missing Value Source: NWS Daily Summary

Daily Weather History Graph

Daily Weather History Graph

Search for Another Location

Airport or City:

Trip Planner

Search our weather history database for the weather conditions in past years. The results will help you decide how hot, cold, wet, or windy it might be!

Date:

Astronomy

Apr. 10, 2013 Rise Set
Actual Time 7:12 AM CDT 7:57 PM CDT
Civil Twilight 6:48 AM CDT 8:21 PM CDT
Nautical Twilight 6:20 AM CDT 8:50 PM CDT
Astronomical Twilight 5:51 AM CDT 9:19 PM CDT
Moon 7:12 AM CDT (4/10) 8:29 PM CDT (4/10)
Length of Visible Light 13h 33m
Length of Day
12h 44m
New Moon, 0% of the Moon is Illuminated
Apr 10
New Moon
Apr 18
First Quarter
Apr 25
Full
May 2
Last Quarter
May 9
New

Hourly Weather History & Observations

Time (CDT) Temp. Dew Point Humidity Pressure Visibility Wind Dir Wind Speed Gust Speed Precip Events Conditions
12:53 AM 73.9 °F 69.1 °F 85% 29.63 in 6.0 mi SE 16.1 mph 26.5 mph N/A   Haze
1:53 AM 73.9 °F 68.0 °F 82% 29.62 in 7.0 mi SE 16.1 mph 21.9 mph N/A   Overcast
2:53 AM 73.9 °F 68.0 °F 82% 29.60 in 7.0 mi SE 13.8 mph 24.2 mph N/A   Overcast
3:53 AM 73.9 °F 68.0 °F 82% 29.58 in 7.0 mi SE 19.6 mph 32.2 mph N/A   Overcast
4:53 AM 73.9 °F 68.0 °F 82% 29.61 in 7.0 mi South 9.2 mph 28.8 mph N/A   Overcast
5:53 AM 73.9 °F 68.0 °F 82% 29.63 in 7.0 mi South 5.8 mph - 0.00 in Rain Light Rain
6:53 AM 71.1 °F 70.0 °F 96% 29.63 in 4.0 mi SE 6.9 mph - 0.00 in Rain Light Rain
7:17 AM 71.6 °F 69.8 °F 94% 29.66 in 2.5 mi SE 4.6 mph - 0.00 in Rain Light Rain
7:46 AM 71.6 °F 69.8 °F 94% 29.68 in 2.5 mi Calm Calm - 0.01 in Rain Light Rain
7:53 AM 71.1 °F 70.0 °F 96% 29.66 in 3.0 mi Calm Calm - 0.01 in Rain Light Rain
8:00 AM 71.6 °F 69.8 °F 94% 29.69 in 3.0 mi Calm Calm - 0.00 in Rain Light Rain
8:19 AM 71.6 °F 71.6 °F 100% 29.69 in 2.0 mi East 3.5 mph - 0.00 in   Overcast
8:53 AM 71.1 °F 71.1 °F 100% 29.69 in 2.5 mi NNE 4.6 mph - 0.00 in   Overcast
9:06 AM 55.4 °F 53.6 °F 94% 29.74 in 5.0 mi North 18.4 mph 25.3 mph N/A   Overcast
9:20 AM 53.6 °F 51.8 °F 94% 29.77 in 10.0 mi NNW 15.0 mph 28.8 mph 0.00 in Rain Light Rain
9:53 AM 51.1 °F 46.9 °F 86% 29.77 in 10.0 mi North 19.6 mph 28.8 mph 0.00 in   Overcast
10:34 AM 50.0 °F 44.6 °F 82% 29.82 in 10.0 mi North 15.0 mph 26.5 mph N/A   Overcast
10:53 AM 50.0 °F 44.1 °F 80% 29.83 in 10.0 mi North 18.4 mph 25.3 mph N/A   Overcast
12:53 PM 54.0 °F 44.1 °F 69% 29.84 in 10.0 mi North 17.3 mph 27.6 mph N/A   Overcast
1:53 PM 57.0 °F 46.0 °F 67% 29.83 in 10.0 mi NNE 16.1 mph 24.2 mph N/A   Overcast
2:53 PM 55.9 °F 45.0 °F 67% 29.83 in 10.0 mi North 11.5 mph 21.9 mph N/A   Overcast
3:53 PM 57.9 °F 45.0 °F 62% 29.80 in 10.0 mi NNE 12.7 mph - N/A   Overcast
4:53 PM 61.0 °F 46.0 °F 58% 29.78 in 10.0 mi NNE 16.1 mph 21.9 mph N/A   Overcast
5:53 PM 63.0 °F 46.0 °F 54% 29.77 in 10.0 mi NNE 10.4 mph 17.3 mph N/A   Mostly Cloudy
6:53 PM 62.1 °F 43.0 °F 50% 29.78 in 10.0 mi NNE 16.1 mph 23.0 mph N/A   Mostly Cloudy
7:53 PM 59.0 °F 43.0 °F 55% 29.79 in 10.0 mi NNE 13.8 mph 19.6 mph N/A   Mostly Cloudy
8:53 PM 57.9 °F 44.1 °F 60% 29.82 in 10.0 mi NNE 8.1 mph - N/A   Mostly Cloudy
9:53 PM 55.9 °F 43.0 °F 62% 29.86 in 10.0 mi NNE 11.5 mph - N/A   Partly Cloudy
10:53 PM 55.0 °F 42.1 °F 62% 29.89 in 10.0 mi North 15.0 mph 21.9 mph N/A   Clear
11:53 PM 54.0 °F 42.1 °F 64% 29.91 in 10.0 mi North 9.2 mph 17.3 mph N/A   Mostly Cloudy